| time (UTC) | temp F | wind direction | speed knots | gust knots | rain 1hr in | rain 24hr in | rain mn in | humidity % | barometer mb |
| 20260503013827 | 60 | 92 | 5.2 | 6.1 | 0.00 | 0.00 | 0.00 | 44 | 1014.7 |
| 20260503013325 | 61 | 74 | 5.2 | 5.2 | 0.00 | 0.00 | 0.00 | 42 | 1014.6 |
| 20260503012822 | 62 | 93 | 5.2 | 6.1 | 0.00 | 0.00 | 0.00 | 40 | 1015.0 |
| 20260503012319 | 63 | 106 | 3.5 | 4.3 | 0.00 | 0.00 | 0.00 | 40 | 1014.9 |
| 20260503011816 | 62 | 118 | 5.2 | 8.7 | 0.00 | 0.00 | 0.00 | 40 | 1014.9 |
| 20260503011314 | 63 | 103 | 5.2 | 8.7 | 0.00 | 0.00 | 0.00 | 40 | 1014.9 |
| 20260503010810 | 63 | 111 | 4.3 | 6.1 | 0.00 | 0.00 | 0.00 | 39 | 1014.9 |
| 20260503010307 | 65 | 91 | 3.5 | 4.3 | 0.00 | 0.00 | 0.00 | 39 | 1014.9 |
| 20260503005804 | 65 | 75 | 2.6 | 3.5 | 0.00 | 0.00 | 0.00 | 37 | 1015.0 |
| 20260503005304 | 65 | 127 | 2.6 | 5.2 | 0.00 | 0.00 | 0.00 | 37 | 1014.9 |
| 20260503004757 | 65 | 161 | 3.5 | 5.2 | 0.00 | 0.00 | 0.00 | 37 | 1015.2 |
| 20260503004255 | 64 | 120 | 6.1 | 7.8 | 0.00 | 0.00 | 0.00 | 38 | 1015.1 |
| 20260503003752 | 63 | 97 | 3.5 | 5.2 | 0.00 | 0.00 | 0.00 | 39 | 1015.2 |
| 20260503003249 | 63 | 59 | 4.3 | 5.2 | 0.00 | 0.00 | 0.00 | 41 | 1015.2 |
| 20260503002745 | 64 | 44 | 5.2 | 8.7 | 0.00 | 0.00 | 0.00 | 40 | 1015.3 |
| 20260503002242 | 63 | 28 | 2.6 | 4.3 | 0.00 | 0.00 | 0.00 | 41 | 1015.6 |
| 20260503001739 | 62 | 70 | 5.2 | 9.6 | 0.00 | 0.00 | 0.00 | 41 | 1015.7 |
| 20260503001235 | 63 | 43 | 2.6 | 3.5 | 0.00 | 0.00 | 0.00 | 41 | 1015.6 |
| 20260503000733 | 63 | 41 | 8.7 | 9.6 | 0.00 | 0.00 | 0.00 | 41 | 1015.7 |
| 20260503000230 | 63 | 29 | 6.1 | 11.3 | 0.00 | 0.00 | 0.00 | 41 | 1015.7 |
| 20260502235727 | 64 | 71 | 1.7 | 6.1 | 0.00 | 0.00 | 0.00 | 38 | 1015.3 |
| 20260502235225 | 66 | 55 | 1.7 | 7.8 | 0.00 | 0.00 | 0.00 | 38 | 1015.6 |
| 20260502234721 | 66 | 13 | 3.5 | 3.5 | 0.00 | 0.00 | 0.00 | 37 | 1015.4 |
| 20260502234218 | 65 | 11 | 1.7 | 8.7 | 0.00 | 0.00 | 0.00 | 38 | 1015.7 |
| 20260502233714 | 64 | 349 | 3.5 | 7.8 | 0.00 | 0.00 | 0.00 | 40 | 1015.4 |
| 20260502233211 | 64 | 18 | 3.5 | 8.7 | 0.00 | 0.00 | 0.00 | 39 | 1015.8 |
| 20260502232706 | 64 | 1 | 5.2 | 12.2 | 0.00 | 0.00 | 0.00 | 40 | 1015.7 |
| 20260502232204 | 64 | 40 | 2.6 | 10.4 | 0.00 | 0.00 | 0.00 | 40 | 1015.7 |
| 20260502231700 | 64 | 42 | 5.2 | 11.3 | 0.00 | 0.00 | 0.00 | 40 | 1016.0 |
| 20260502231159 | 64 | 23 | 7.0 | 11.3 | 0.00 | 0.00 | 0.00 | 40 | 1015.9 |
| 20260502230657 | 64 | 48 | 2.6 | 8.7 | 0.00 | 0.00 | 0.00 | 39 | 1016.1 |
| 20260502230155 | 65 | 57 | 6.1 | 7.8 | 0.00 | 0.00 | 0.00 | 38 | 1016.0 |
| 20260502225650 | 64 | 58 | 4.3 | 9.6 | 0.00 | 0.00 | 0.00 | 39 | 1016.1 |
| 20260502225148 | 63 | 72 | 3.5 | 4.3 | 0.00 | 0.00 | 0.00 | 38 | 1016.0 |
| 20260502224644 | 63 | 49 | 7.0 | 12.2 | 0.00 | 0.00 | 0.00 | 39 | 1016.2 |
| 20260502224141 | 63 | 31 | 7.8 | 12.2 | 0.00 | 0.00 | 0.00 | 39 | 1016.3 |
| 20260502223639 | 65 | 57 | 9.6 | 12.2 | 0.00 | 0.00 | 0.00 | 39 | 1016.1 |
| 20260502223137 | 64 | 46 | 7.8 | 10.4 | 0.00 | 0.00 | 0.00 | 40 | 1016.3 |
| 20260502222634 | 63 | 53 | 1.7 | 11.3 | 0.00 | 0.00 | 0.00 | 40 | 1016.7 |
| 20260502222131 | 63 | 273 | 1.7 | 3.5 | 0.00 | 0.00 | 0.00 | 39 | 1016.4 |
| 20260502221626 | 64 | 277 | 3.5 | 7.0 | 0.00 | 0.00 | 0.00 | 39 | 1016.8 |
| 20260502221123 | 64 | 307 | 1.7 | 5.2 | 0.00 | 0.00 | 0.00 | 38 | 1017.1 |
| 20260502220619 | 64 | 21 | 6.1 | 12.2 | 0.00 | 0.00 | 0.00 | 39 | 1017.1 |
| 20260502220110 | 66 | 335 | 7.0 | 14.8 | 0.00 | 0.00 | 0.00 | 38 | 1017.1 |
| 20260502215608 | 65 | 41 | 3.5 | 5.2 | 0.00 | 0.00 | 0.00 | 38 | 1017.0 |
| 20260502215104 | 64 | 46 | 1.7 | 5.2 | 0.00 | 0.00 | 0.00 | 39 | 1017.0 |
| 20260502214602 | 62 | 28 | 5.2 | 10.4 | 0.00 | 0.00 | 0.00 | 41 | 1017.3 |
| 20260502214059 | 62 | 341 | 7.0 | 9.6 | 0.00 | 0.00 | 0.00 | 40 | 1017.3 |
| 20260502213556 | 63 | 60 | 7.8 | 12.2 | 0.00 | 0.00 | 0.00 | 39 | 1017.2 |
| 20260502213053 | 64 | 100 | 5.2 | 9.6 | 0.00 | 0.00 | 0.00 | 38 | 1017.2 |
| 20260502212552 | 64 | 25 | 4.3 | 9.6 | 0.00 | 0.00 | 0.00 | 39 | 1017.5 |
| 20260502212049 | 64 | 28 | 7.8 | 12.2 | 0.00 | 0.00 | 0.00 | 39 | 1017.4 |
| 20260502211545 | 63 | 354 | 5.2 | 9.6 | 0.00 | 0.00 | 0.00 | 39 | 1017.5 |
| 20260502211042 | 62 | 37 | 3.5 | 8.7 | 0.00 | 0.00 | 0.00 | 39 | 1017.9 |
| 20260502210539 | 62 | 35 | 6.1 | 7.8 | 0.00 | 0.00 | 0.00 | 40 | 1017.9 |
| 20260502210036 | 62 | 264 | 0.9 | 3.5 | 0.00 | 0.00 | 0.00 | 39 | 1017.5 |
| 20260502205533 | 62 | 298 | 1.7 | 5.2 | 0.00 | 0.00 | 0.00 | 41 | 1017.7 |
| 20260502205030 | 62 | 351 | 6.1 | 6.1 | 0.00 | 0.00 | 0.00 | 40 | 1017.5 |
| 20260502204527 | 64 | 56 | 3.5 | 7.8 | 0.00 | 0.00 | 0.00 | 39 | 1017.9 |
| 20260502204025 | 63 | 8 | 3.5 | 5.2 | 0.00 | 0.00 | 0.00 | 39 | 1017.7 |
| 20260502203521 | 62 | 44 | 8.7 | 8.7 | 0.00 | 0.00 | 0.00 | 42 | 1017.7 |
| 20260502203018 | 62 | 48 | 5.2 | 9.6 | 0.00 | 0.00 | 0.00 | 41 | 1017.9 |
| 20260502202514 | 62 | 41 | 9.6 | 13.9 | 0.00 | 0.00 | 0.00 | 41 | 1017.9 |
| 20260502202013 | 62 | 359 | 7.8 | 13.0 | 0.00 | 0.00 | 0.00 | 40 | 1018.0 |
| 20260502201508 | 62 | 35 | 6.1 | 10.4 | 0.00 | 0.00 | 0.00 | 39 | 1018.1 |
| 20260502201005 | 62 | 108 | 1.7 | 5.2 | 0.00 | 0.00 | 0.00 | 39 | 1018.1 |
| 20260502200501 | 61 | 14 | 6.1 | 10.4 | 0.00 | 0.00 | 0.00 | 41 | 1018.0 |
| 20260502195959 | 61 | 9 | 8.7 | 15.6 | 0.00 | 0.00 | 0.00 | 41 | 1018.3 |
| 20260502195456 | 61 | 331 | 4.3 | 11.3 | 0.00 | 0.00 | 0.00 | 42 | 1018.2 |
| 20260502194952 | 63 | 44 | 2.6 | 5.2 | 0.00 | 0.00 | 0.00 | 39 | 1018.4 |
| 20260502194449 | 60 | 351 | 3.5 | 7.8 | 0.00 | 0.00 | 0.00 | 41 | 1018.5 |
| 20260502193944 | 60 | 347 | 4.3 | 8.7 | 0.00 | 0.00 | 0.00 | 41 | 1018.2 |
| 20260502193443 | 62 | 358 | 2.6 | 9.6 | 0.00 | 0.00 | 0.00 | 40 | 1018.4 |
| 20260502192938 | 62 | 12 | 4.3 | 7.0 | 0.00 | 0.00 | 0.00 | 41 | 1018.4 |
| 20260502192435 | 62 | 54 | 5.2 | 9.6 | 0.00 | 0.00 | 0.00 | 41 | 1018.8 |
| 20260502191932 | 61 | 10 | 3.5 | 9.6 | 0.00 | 0.00 | 0.00 | 42 | 1018.7 |
| 20260502191430 | 60 | 78 | 5.2 | 8.7 | 0.00 | 0.00 | 0.00 | 42 | 1018.9 |
| 20260502190927 | 60 | 8 | 9.6 | 12.2 | 0.00 | 0.00 | 0.00 | 44 | 1018.8 |
| 20260502190424 | 60 | 40 | 5.2 | 10.4 | 0.00 | 0.00 | 0.00 | 43 | 1018.5 |
| 20260502185920 | 59 | 11 | 11.3 | 11.3 | 0.00 | 0.00 | 0.00 | 46 | 1018.9 |
| 20260502185415 | 59 | 15 | 5.2 | 5.2 | 0.00 | 0.00 | 0.00 | 45 | 1019.3 |
| 20260502184912 | 60 | 7 | 13.9 | 14.8 | 0.00 | 0.00 | 0.00 | 45 | 1019.0 |
| 20260502184408 | 59 | 13 | 7.8 | 15.6 | 0.00 | 0.00 | 0.00 | 45 | 1019.0 |
| 20260502183904 | 59 | 346 | 7.8 | 14.8 | 0.00 | 0.00 | 0.00 | 47 | 1019.1 |
| 20260502183401 | 59 | 12 | 9.6 | 15.6 | 0.00 | 0.00 | 0.00 | 48 | 1019.1 |
| 20260502182856 | 59 | 12 | 7.8 | 13.9 | 0.00 | 0.00 | 0.00 | 48 | 1019.0 |
| 20260502182352 | 58 | 348 | 12.2 | 15.6 | 0.00 | 0.00 | 0.00 | 49 | 1019.2 |
| 20260502181849 | 59 | 0 | 11.3 | 14.8 | 0.00 | 0.00 | 0.00 | 50 | 1019.0 |
| 20260502181348 | 59 | 16 | 10.4 | 18.2 | 0.00 | 0.00 | 0.00 | 50 | 1019.0 |
| 20260502180845 | 58 | 4 | 10.4 | 13.9 | 0.00 | 0.00 | 0.00 | 48 | 1019.3 |
| 20260502180341 | 58 | 1 | 13.0 | 16.5 | 0.00 | 0.00 | 0.00 | 47 | 1019.1 |
| 20260502170300 | 58 | 347 | 11.3 | 13.9 | 0.00 | 0.00 | 0.00 | 51 | 1019.2 |
| 20260502164249 | 59 | 7 | 13.9 | 16.5 | 0.00 | 0.00 | 0.00 | 50 | 1019.3 |
| 20260502163744 | 57 | 6 | 12.2 | 15.6 | 0.00 | 0.00 | 0.00 | 50 | 1019.2 |
| 20260502163241 | 57 | 9 | 8.7 | 20.9 | 0.00 | 0.00 | 0.00 | 50 | 1019.2 |
| 20260502162738 | 58 | 0 | 8.7 | 15.6 | 0.00 | 0.00 | 0.00 | 51 | 1019.2 |
| 20260502162234 | 58 | 341 | 7.8 | 17.4 | 0.00 | 0.00 | 0.00 | 51 | 1019.2 |
| 20260502161731 | 58 | 6 | 7.8 | 14.8 | 0.00 | 0.00 | 0.00 | 50 | 1019.1 |
| 20260502161227 | 59 | 303 | 9.6 | 14.8 | 0.00 | 0.00 | 0.00 | 50 | 1019.1 |
| 20260502160726 | 57 | 331 | 13.9 | 14.8 | 0.00 | 0.00 | 0.00 | 50 | 1019.1 |
| 20260502160225 | 57 | 327 | 14.8 | 16.5 | 0.00 | 0.00 | 0.00 | 50 | 1018.9 |
| 20260502152148 | 56 | 327 | 5.2 | 14.8 | 0.00 | 0.00 | 0.00 | 54 | 1019.1 |
| 20260502151646 | 55 | 277 | 2.6 | 16.5 | 0.00 | 0.00 | 0.00 | 54 | 1019.2 |
| 20260502151143 | 55 | 308 | 9.6 | 15.6 | 0.00 | 0.00 | 0.00 | 54 | 1019.2 |
| 20260502150640 | 55 | 354 | 5.2 | 16.5 | 0.00 | 0.00 | 0.00 | 53 | 1019.1 |
| 20260502150136 | 55 | 308 | 6.1 | 14.8 | 0.00 | 0.00 | 0.00 | 53 | 1019.0 |
| 20260502130525 | 48 | 270 | 2.6 | 3.5 | 0.00 | 0.00 | 0.00 | 62 | 1018.5 |
| 20260502123509 | 48 | 274 | 1.7 | 3.5 | 0.00 | 0.00 | 0.00 | 59 | 1018.1 |
| 20260502123005 | 48 | 296 | 4.3 | 5.2 | 0.00 | 0.00 | 0.00 | 59 | 1018.1 |
| 20260502122501 | 47 | 344 | 2.6 | 5.2 | 0.00 | 0.00 | 0.00 | 61 | 1017.9 |
| 20260502121959 | 47 | 320 | 4.3 | 5.2 | 0.00 | 0.00 | 0.00 | 61 | 1018.2 |
| 20260502121456 | 46 | 296 | 5.2 | 5.2 | 0.00 | 0.00 | 0.00 | 63 | 1018.0 |
| 20260502120954 | 46 | 309 | 4.3 | 5.2 | 0.00 | 0.00 | 0.00 | 63 | 1017.9 |
| 20260502120450 | 46 | 292 | 5.2 | 6.1 | 0.00 | 0.00 | 0.00 | 62 | 1018.0 |
| 20260502115444 | 45 | 289 | 4.3 | 6.1 | 0.00 | 0.00 | 0.00 | 64 | 1018.1 |
| 20260502114940 | 45 | 286 | 3.5 | 6.1 | 0.00 | 0.00 | 0.00 | 64 | 1018.0 |
| 20260502114437 | 45 | 299 | 4.3 | 7.0 | 0.00 | 0.00 | 0.00 | 63 | 1018.0 |
| 20260502113934 | 45 | 298 | 5.2 | 7.8 | 0.00 | 0.00 | 0.00 | 64 | 1017.9 |
| 20260502113432 | 44 | 291 | 5.2 | 6.1 | 0.00 | 0.00 | 0.00 | 64 | 1017.9 |
| 20260502112930 | 45 | 280 | 5.2 | 7.0 | 0.00 | 0.00 | 0.00 | 63 | 1018.0 |
| 20260502112427 | 45 | 298 | 4.3 | 6.1 | 0.00 | 0.00 | 0.00 | 63 | 1018.1 |
| 20260502111925 | 45 | 325 | 2.6 | 5.2 | 0.00 | 0.00 | 0.00 | 63 | 1017.9 |
| 20260502111422 | 45 | 307 | 5.2 | 8.7 | 0.00 | 0.00 | 0.00 | 63 | 1017.8 |
| 20260502110919 | 46 | 295 | 4.3 | 7.8 | 0.00 | 0.00 | 0.00 | 62 | 1018.1 |
| 20260502110417 | 46 | 327 | 7.0 | 7.8 | 0.00 | 0.00 | 0.00 | 62 | 1017.9 |
| 20260502105914 | 46 | 324 | 6.1 | 8.7 | 0.00 | 0.00 | 0.00 | 61 | 1017.7 |
| 20260502105411 | 47 | 325 | 5.2 | 7.8 | 0.00 | 0.00 | 0.00 | 60 | 1017.8 |
| 20260502104909 | 46 | 328 | 6.1 | 8.7 | 0.00 | 0.00 | 0.00 | 61 | 1017.5 |
| 20260502104406 | 49 | 339 | 7.8 | 8.7 | 0.00 | 0.00 | 0.00 | 56 | 1017.5 |
| 20260502103903 | 49 | 12 | 5.2 | 7.8 | 0.00 | 0.00 | 0.00 | 55 | 1017.3 |
| 20260502103401 | 49 | 29 | 5.2 | 11.3 | 0.00 | 0.00 | 0.00 | 56 | 1017.3 |
| 20260502102857 | 49 | 39 | 5.2 | 7.8 | 0.00 | 0.00 | 0.00 | 54 | 1017.1 |
| 20260502102354 | 51 | 55 | 6.1 | 9.6 | 0.00 | 0.00 | 0.00 | 52 | 1017.1 |
| 20260502101852 | 50 | 37 | 9.6 | 9.6 | 0.00 | 0.00 | 0.00 | 53 | 1017.2 |
| 20260502101350 | 50 | 15 | 6.1 | 7.8 | 0.00 | 0.00 | 0.00 | 52 | 1017.0 |
| 20260502100848 | 50 | 44 | 5.2 | 6.1 | 0.00 | 0.00 | 0.00 | 53 | 1017.1 |
| 20260502100347 | 50 | 35 | 5.2 | 7.0 | 0.00 | 0.00 | 0.00 | 52 | 1017.0 |
| 20260502091320 | 51 | 320 | 3.5 | 5.2 | 0.00 | 0.00 | 0.00 | 48 | 1016.0 |
| 20260502090818 | 49 | 328 | 3.5 | 5.2 | 0.00 | 0.00 | 0.00 | 50 | 1015.9 |
| 20260502090315 | 49 | 340 | 4.3 | 5.2 | 0.00 | 0.00 | 0.00 | 51 | 1015.9 |
| 20260502071210 | 54 | 203 | 5.2 | 8.7 | 0.00 | 0.00 | 0.00 | 39 | 1014.2 |
| 20260502070708 | 55 | 219 | 6.1 | 9.6 | 0.00 | 0.00 | 0.00 | 37 | 1014.7 |
| 20260502070205 | 54 | 215 | 4.3 | 8.7 | 0.00 | 0.00 | 0.00 | 36 | 1014.5 |
| 20260502065704 | 55 | 201 | 4.3 | 6.1 | 0.00 | 0.00 | 0.00 | 37 | 1014.6 |
| 20260502065201 | 59 | 198 | 3.5 | 5.2 | 0.00 | 0.00 | 0.00 | 32 | 1014.6 |
| 20260502064700 | 59 | 211 | 3.5 | 5.2 | 0.00 | 0.00 | 0.00 | 31 | 1014.7 |
| 20260502064156 | 58 | 211 | 4.3 | 6.1 | 0.00 | 0.00 | 0.00 | 34 | 1014.6 |
| 20260502063654 | 57 | 255 | 7.8 | 8.7 | 0.00 | 0.00 | 0.00 | 35 | 1014.6 |
| 20260502063152 | 55 | 256 | 6.1 | 7.8 | 0.00 | 0.00 | 0.00 | 39 | 1014.7 |
| 20260502062649 | 55 | 239 | 4.3 | 4.3 | 0.00 | 0.00 | 0.00 | 39 | 1014.7 |
| 20260502062146 | 54 | 251 | 3.5 | 3.5 | 0.00 | 0.00 | 0.00 | 39 | 1014.6 |
| 20260502061644 | 55 | 198 | 3.5 | 4.3 | 0.00 | 0.00 | 0.00 | 37 | 1014.3 |
| 20260502061142 | 57 | 204 | 3.5 | 3.5 | 0.00 | 0.00 | 0.00 | 36 | 1014.7 |
| 20260502060642 | 57 | 233 | 3.5 | 6.1 | 0.00 | 0.00 | 0.00 | 35 | 1014.5 |
| 20260502060139 | 55 | 221 | 4.3 | 4.3 | 0.00 | 0.00 | 0.00 | 37 | 1014.3 |
| 20260502055637 | 52 | 226 | 2.6 | 3.5 | 0.00 | 0.00 | 0.00 | 45 | 1014.7 |
| 20260502055134 | 54 | 245 | 3.5 | 5.2 | 0.00 | 0.00 | 0.00 | 40 | 1014.5 |
| 20260502054633 | 57 | 245 | 4.3 | 4.3 | 0.00 | 0.00 | 0.00 | 35 | 1014.6 |
| 20260502054130 | 58 | 246 | 3.5 | 3.5 | 0.00 | 0.00 | 0.00 | 33 | 1014.5 |
| 20260502053627 | 57 | 232 | 1.7 | 2.6 | 0.00 | 0.00 | 0.00 | 35 | 1014.8 |
| 20260502053125 | 55 | 267 | 2.6 | 4.3 | 0.00 | 0.00 | 0.00 | 39 | 1014.5 |
| 20260502052623 | 52 | 256 | 3.5 | 5.2 | 0.00 | 0.00 | 0.00 | 43 | 1014.7 |
| 20260502052121 | 51 | 267 | 3.5 | 6.1 | 0.00 | 0.00 | 0.00 | 47 | 1014.8 |
| 20260502051619 | 51 | 265 | 6.1 | 7.0 | 0.00 | 0.00 | 0.00 | 46 | 1014.6 |
| 20260502051117 | 50 | 261 | 4.3 | 5.2 | 0.00 | 0.00 | 0.00 | 47 | 1014.6 |
| 20260502050612 | 55 | 260 | 2.6 | 4.3 | 0.00 | 0.00 | 0.00 | 38 | 1014.7 |
| 20260502050109 | 55 | 277 | 3.5 | 5.2 | 0.00 | 0.00 | 0.00 | 40 | 1014.6 |
| 20260502045606 | 55 | 271 | 3.5 | 5.2 | 0.00 | 0.00 | 0.00 | 38 | 1014.7 |
| 20260502045103 | 52 | 277 | 4.3 | 5.2 | 0.00 | 0.00 | 0.00 | 41 | 1014.5 |
| 20260502044559 | 55 | 267 | 5.2 | 5.2 | 0.00 | 0.00 | 0.00 | 40 | 1014.6 |
| 20260502044056 | 53 | 252 | 5.2 | 7.0 | 0.00 | 0.00 | 0.00 | 41 | 1014.3 |
| 20260502043554 | 54 | 255 | 5.2 | 6.1 | 0.00 | 0.00 | 0.00 | 39 | 1014.3 |
| 20260502043050 | 54 | 262 | 4.3 | 6.1 | 0.00 | 0.00 | 0.00 | 40 | 1014.6 |
| 20260502042545 | 53 | 257 | 6.1 | 7.0 | 0.00 | 0.00 | 0.00 | 43 | 1014.2 |
| 20260502042043 | 57 | 267 | 3.5 | 5.2 | 0.00 | 0.00 | 0.00 | 38 | 1014.5 |
| 20260502041540 | 54 | 271 | 4.3 | 5.2 | 0.00 | 0.00 | 0.00 | 40 | 1014.2 |
| 20260502041037 | 53 | 265 | 4.3 | 5.2 | 0.00 | 0.00 | 0.00 | 42 | 1014.5 |
| 20260502040533 | 55 | 267 | 3.5 | 4.3 | 0.00 | 0.00 | 0.00 | 41 | 1014.0 |
| 20260502040031 | 56 | 267 | 3.5 | 4.3 | 0.00 | 0.00 | 0.00 | 37 | 1014.0 |
| 20260502035526 | 57 | 225 | 0.9 | 1.7 | 0.00 | 0.00 | 0.00 | 34 | 1014.2 |
| 20260502035024 | 57 | 154 | 1.7 | 3.5 | 0.00 | 0.00 | 0.00 | 36 | 1014.2 |
| 20260502034522 | 60 | 231 | 2.6 | 3.5 | 0.00 | 0.00 | 0.00 | 33 | 1014.1 |
| 20260502034020 | 60 | 258 | 2.6 | 3.5 | 0.00 | 0.00 | 0.00 | 33 | 1013.9 |
| 20260502033518 | 57 | 267 | 3.5 | 5.2 | 0.00 | 0.00 | 0.00 | 38 | 1013.8 |
| 20260502033015 | 56 | 255 | 3.5 | 5.2 | 0.00 | 0.00 | 0.00 | 41 | 1014.1 |
| 20260502032511 | 60 | 243 | 2.6 | 2.6 | 0.00 | 0.00 | 0.00 | 35 | 1014.1 |
| 20260502032008 | 59 | 241 | 2.6 | 3.5 | 0.00 | 0.00 | 0.00 | 36 | 1013.8 |
| 20260502031506 | 59 | 193 | 0.9 | 2.6 | 0.00 | 0.00 | 0.00 | 37 | 1013.8 |
| 20260502031004 | 60 | 269 | 1.7 | 3.5 | 0.00 | 0.00 | 0.00 | 34 | 1013.8 |
| 20260502030502 | 60 | 258 | 2.6 | 3.5 | 0.00 | 0.00 | 0.00 | 35 | 1013.8 |
| 20260502030000 | 59 | 274 | 2.6 | 3.5 | 0.00 | 0.00 | 0.00 | 35 | 1013.7 |
| 20260502025456 | 57 | 266 | 3.5 | 4.3 | 0.00 | 0.00 | 0.00 | 40 | 1013.8 |
| 20260502024954 | 62 | 312 | 1.7 | 1.7 | 0.00 | 0.00 | 0.00 | 32 | 1013.7 |
| 20260502024452 | 63 | 290 | 1.7 | 1.7 | 0.00 | 0.00 | 0.00 | 31 | 1013.6 |
| 20260502023950 | 63 | 300 | 0.9 | 2.6 | 0.00 | 0.00 | 0.00 | 31 | 1013.5 |
| 20260502023447 | 64 | 290 | 0.0 | 1.7 | 0.00 | 0.00 | 0.00 | 31 | 1013.6 |
| 20260502022945 | 64 | 285 | 1.7 | 1.7 | 0.00 | 0.00 | 0.00 | 31 | 1013.6 |
| 20260502022441 | 64 | 205 | 0.0 | 1.7 | 0.00 | 0.00 | 0.00 | 31 | 1013.3 |
| 20260502021938 | 64 | 155 | 0.9 | 1.7 | 0.00 | 0.00 | 0.00 | 31 | 1013.2 |
| 20260502021436 | 64 | 106 | 0.9 | 1.7 | 0.00 | 0.00 | 0.00 | 30 | 1013.3 |
| 20260502020933 | 64 | 148 | 1.7 | 1.7 | 0.00 | 0.00 | 0.00 | 33 | 1013.6 |
| 20260502020431 | 65 | 132 | 0.0 | 0.9 | 0.00 | 0.00 | 0.00 | 31 | 1013.3 |
| 20260502015927 | 65 | 27 | 1.7 | 2.6 | 0.00 | 0.00 | 0.00 | 31 | 1013.5 |
| 20260502015425 | 65 | 22 | 0.0 | 3.5 | 0.00 | 0.00 | 0.00 | 31 | 1013.1 |
| 20260502014921 | 66 | 38 | 1.7 | 3.5 | 0.00 | 0.00 | 0.00 | 31 | 1013.3 |
| 20260502014418 | 66 | 19 | 3.5 | 4.3 | 0.00 | 0.00 | 0.00 | 29 | 1013.2 |